User: anonymous   Login
Location: Unspecified
(0.0000°N, 0.0000°E)
Time: 12:46:19
(UTC+00:00)
Language:

deb Explorer IX - Orbit

View from above orbital plane
View from above orbital plane
View from above satellite
View from above satellite

Ground track
Ground track

The orbit data is extracted from the following two-line orbital elements,

1 00085U 61004C   17326.78784536  .00001625  00000-0  37025-3 0  9995
2 00085  38.7730 114.8184 0402465  23.6944 338.1787 14.18127916797807
Epoch (UTC): 22 November 2017 18:54:29
Eccentricity: 0.0402465
inclination: 38.7730°
perigee height: 541 km
apogee height: 1122 km
right ascension of ascending node: 114.8184°
argument of perigee: 23.6944°
revolutions per day: 14.18127916
mean anomaly at epoch: 338.1787°
orbit number at epoch: 79780

The dashed part of the orbit path shows where the satellite is in the earth's shadow,  

DLR